"Pseudo-MPEC" for P20JH6v

Created 2018 Oct 12 23:18:07 UT using Find_Orb

Click here for an explanation of pseudo-MPECs

 
 Astrometry: 
     P20JH6v  C2018 10 10n0AstrometryCWnU%1eq#LOVeB`PW[(9rKSIo!-loqiLex+w=#i,F52
     P20JH6v  C2018 10 100/)JiY($;AvANy6O,\x$%KCWV@u3tt*M#/p67tRXJs,Ic5Vy34X8F52
     P20JH6v  C2018 10 10W5IR06O0eVgtMX1!0CL])O+S+s1D+Fm71]=`H(p5VwmAyWd%nmTnF52
     P20JH6v KC2018 10 11e:Gqg2oLYcjy[*G=7tx^;Qp0dM3mX4dG3LZO6$(q.P4bAb:%$EO^291
     P20JH6v KC2018 10 11/:eN'X`;B`bU3v^#gredacted;Nbq%8%?q]?GAN;,VB?=]aWqDv/291
     P20JH6v KC2018 10 11GwvO_Gld9K^1bW2]_Miob3,Jj,u5)^65f?\2^v7vay-s\lF%bohu291
     P20JH6v KC2018 10 11!lf.A!k%7K:WjQi(MZX4Yea;X-A@VcWU\ev7V!([p`LG).tdgbCRL01
     P20JH6v KC2018 10 11I9d04+fw!wR7=(NM]V/Sp[CN0jacmT'#seeh2CegAq$^yRe]ct6YL01
     P20JH6v KC2018 10 11/kYSswcd9Wm.56tX!SM@kLMWc6QToaE):ZW\M8:uO1taf6o91`@^L01
     P20JH6v KC2018 10 12q)NI]wd\XU;57h'+='4Nv;lE.#+N;W2iZIgD`G;bk,+M8HTLwVl#H21
     P20JH6v KC2018 10 12G-)vd;eDdRBJx?CLGpJKDG[!m^HG?/P;skZq0g94A7T][Z_QR/v0H21
     P20JH6v KC2018 10 128w#v$o/Ud]ETd2nyS_-jtg)Ls8(o@GYqG^@09+mm*XJWI/mNEOCPH21

Station data:
(291) LPL/Spacewatch II  (N31.961669 W111.599905)  US/Arizona.  Observers J.
   V. Scotti, R. S. McMillan. 1.8-m f/2.7 reflector + CCD.
(F52) Pan-STARRS 2, Haleakala  (N20.707384 W156.255910)  US/Hawaii.
(H21) Astronomical Research Observatory, Westfield  (N39.483057 W87.968270)
   US/Illinois. 0.76-m f/3.0 astrograph + CCD.
(L01) Višnjan Observatory, Tičan  (N45.290900 E13.749300)  Croatia.  Observer
   K. Korlević. 1.0-m f/2.9 reflector + CCD.

Orbital elements:  P20JH6v
   Perihelion 2018 Jul 17.029368 +/- 0.13 TT =  0:42:17 (JD 2458316.529368)
Epoch 2018 Oct 12.0 TT = JDT 2458403.5   Earth MOID: 0.0136   Ve: 0.0813
M  99.67430 +/- 0.13                (J2000 ecliptic)          AutoNEOCP
n   1.14606852 +/- 0.00029          Peri.   47.41339 +/- 0.039
a   0.90433427 +/- 0.000152         Node   196.58587 +/- 0.010
e   0.3698275 +/- 0.0015            Incl.    7.63712 +/- 0.039
P   0.86/314.11d           H 25.3   G  0.15   U  7.3  
q 0.56988652 +/- 0.00141    Q 1.23878203 +/- 0.00125
From 12 observations 2018 Oct. 10-12 (41.6 hr); mean residual 0".22
Residuals in arcseconds: 
181010 F52  .01-  .13+    181011 291  .20-  .34-    181011 L01  .26+  .46+    
181010 F52  .22+  .16+    181011 291  .01-  .04-    181012 H21  .02+  .06+    
181010 F52  .17-  .06-    181011 L01  .01-  .12-    181012 H21  .07-  .31-    
181011 291  .07-  .23-    181011 L01  .38+  .36+    181012 H21  .35-  .07-    

Ephemerides (geocentric):
Date (UTC) HH   RA              Dec         delta   r     elong  mag " sig PA
---- -- -- --  -------------   -----------  ------ ------ -----  --- ---- ---
2018 10 12 23  02 34 34.853   +06 59 25.39  .07435 1.0678 159.3 20.8  .87  22
2018 10 13 00  02 34 05.459   +06 54 07.58  .07451 1.0680 159.5 20.8  .91  23
2018 10 13 01  02 33 36.197   +06 48 51.05  .07468 1.0682 159.6 20.8  .95  24
2018 10 13 02  02 33 07.066   +06 43 35.77  .07484 1.0684 159.8 20.8  1.0  25
2018 10 13 03  02 32 38.066   +06 38 21.77  .07500 1.0686 160.0 20.8  1.0  26
2018 10 13 04  02 32 09.196   +06 33 09.02  .07516 1.0688 160.1 20.8  1.1  26
2018 10 13 05  02 31 40.455   +06 27 57.54  .07533 1.0690 160.3 20.8  1.1  27
2018 10 13 06  02 31 11.843   +06 22 47.32  .07549 1.0692 160.4 20.8  1.2  28
2018 10 13 07  02 30 43.360   +06 17 38.36  .07566 1.0694 160.5 20.8  1.2  29
2018 10 13 08  02 30 15.004   +06 12 30.66  .07582 1.0696 160.7 20.8  1.3  29
2018 10 13 09  02 29 46.775   +06 07 24.21  .07599 1.0699 160.8 20.8  1.3  30
2018 10 13 10  02 29 18.673   +06 02 19.02  .07615 1.0701 161.0 20.8  1.4  30
2018 10 13 11  02 28 50.697   +05 57 15.09  .07632 1.0703 161.1 20.8  1.4  31
2018 10 13 12  02 28 22.847   +05 52 12.41  .07649 1.0705 161.3 20.8  1.5  32
2018 10 13 13  02 27 55.121   +05 47 10.98  .07666 1.0707 161.4 20.8  1.5  32
2018 10 13 14  02 27 27.520   +05 42 10.80  .07682 1.0709 161.5 20.8  1.6  33
2018 10 13 15  02 27 00.042   +05 37 11.87  .07699 1.0711 161.7 20.8  1.6  33
2018 10 13 16  02 26 32.687   +05 32 14.18  .07716 1.0713 161.8 20.8  1.7  33
2018 10 13 17  02 26 05.455   +05 27 17.73  .07733 1.0715 162.0 20.8  1.7  34
2018 10 13 18  02 25 38.346   +05 22 22.53  .07750 1.0717 162.1 20.8  1.8  34
2018 10 13 19  02 25 11.357   +05 17 28.57  .07767 1.0719 162.2 20.8  1.8  35
2018 10 13 20  02 24 44.489   +05 12 35.84  .07785 1.0721 162.4 20.8  1.9  35
2018 10 13 21  02 24 17.742   +05 07 44.35  .07802 1.0723 162.5 20.8  2.0  35
2018 10 13 22  02 23 51.115   +05 02 54.10  .07819 1.0725 162.6 20.8  2.0  36
2018 10 13 23  02 23 24.606   +04 58 05.07  .07836 1.0727 162.7 20.8  2.1  36
2018 10 14 00  02 22 58.217   +04 53 17.27  .07854 1.0729 162.9 20.8  2.1  36
2018 10 14 01  02 22 31.945   +04 48 30.69  .07871 1.0731 163.0 20.8  2.2  37
2018 10 14 02  02 22 05.791   +04 43 45.34  .07889 1.0733 163.1 20.8  2.3  37
2018 10 14 03  02 21 39.754   +04 39 01.21  .07906 1.0735 163.3 20.8  2.3  37
2018 10 14 04  02 21 13.834   +04 34 18.30  .07924 1.0737 163.4 20.8  2.4  37
2018 10 14 05  02 20 48.029   +04 29 36.60  .07941 1.0739 163.5 20.8  2.4  38
2018 10 14 06  02 20 22.340   +04 24 56.11  .07959 1.0741 163.6 20.8  2.5  38
2018 10 14 07  02 19 56.765   +04 20 16.83  .07977 1.0743 163.7 20.8  2.6  38
2018 10 14 08  02 19 31.305   +04 15 38.76  .07995 1.0745 163.9 20.8  2.6  38
2018 10 14 09  02 19 05.958   +04 11 01.89  .08012 1.0747 164.0 20.8  2.7  39
2018 10 14 10  02 18 40.725   +04 06 26.22  .08030 1.0749 164.1 20.8  2.8  39
2018 10 14 11  02 18 15.604   +04 01 51.75  .08048 1.0751 164.2 20.8  2.8  39
2018 10 14 12  02 17 50.595   +03 57 18.48  .08066 1.0753 164.3 20.8  2.9  39
2018 10 14 13  02 17 25.698   +03 52 46.39  .08084 1.0755 164.4 20.8  3.0  39
2018 10 14 14  02 17 00.911   +03 48 15.50  .08102 1.0757 164.5 20.8  3.0  40
2018 10 14 15  02 16 36.236   +03 43 45.79  .08120 1.0759 164.6 20.8  3.1  40
2018 10 14 16  02 16 11.670   +03 39 17.26  .08138 1.0761 164.7 20.8  3.2  40
2018 10 14 17  02 15 47.213   +03 34 49.91  .08157 1.0763 164.9 20.8  3.2  40
2018 10 14 18  02 15 22.866   +03 30 23.73  .08175 1.0765 165.0 20.8  3.3  40
2018 10 14 19  02 14 58.626   +03 25 58.73  .08193 1.0767 165.1 20.8  3.4  40
2018 10 14 20  02 14 34.495   +03 21 34.90  .08212 1.0769 165.2 20.8  3.4  41
2018 10 14 21  02 14 10.471   +03 17 12.23  .08230 1.0771 165.3 20.8  3.5  41
2018 10 14 22  02 13 46.554   +03 12 50.72  .08248 1.0773 165.4 20.8  3.6  41